Skip Page Navigation
NASA JPL Caltech
NASA Logo - Jet Propulsion Laboratory + View the NASA Portal
+ Center for Near-Earth Object Studies
JPL Home Earth Solar System Stars & Galaxies Technology
JPL Solar System Dynamics
BODIES ORBITS EPHEMERIDES TOOLS PHYSICAL DATA DISCOVERY FAQ SITE MAP
JPL Small-Body Database Browser
Search: [ help ]  
362188 (2009 FP72)
Classification: Main-belt Asteroid          SPK-ID: 2362188
Ephemeris | Orbit Diagram | Orbital Elements | Mission Design | Physical Parameters | Discovery Circumstances ]

[ hide orbit diagram ]

For accurate long-term ephemerides, please instead use our Horizons system.This orbit viewer was implemented using two-body methods, and hence should not be used for determining accurate long-term trajectories (over several years or decades) or planetary encounter circumstances.


Orbital Elements at Epoch 2459396.5 (2021-Jul-01.0) TDB
Reference: JPL 19 (heliocentric ecliptic J2000)
 Element Value Uncertainty (1-sigma)   Units 
e .03731049844121185 4.747e-08  
a 2.530693393572946 1.8192e-08 au
q 2.436271961656858 1.2035e-07 au
i 3.394270792919566 4.6833e-06 deg
node 73.39937207735609 8.6058e-05 deg
peri 94.3267230966964 0.00011034 deg
M 50.75025051515978 6.6413e-05 deg
tp 2459189.202810759395
(2020-Dec-05.70281076)
0.00027193 TDB
period 1470.475266015205
4.03
1.5856e-05
4.341e-08
d
yr
n .2448188067627638 2.6399e-09 deg/d
Q 2.625114825489034 1.8871e-08 au
  Orbit Determination Parameters
   # obs. used (total)      259  
   data-arc span      7323 days (20.05 yr)  
   first obs. used      2001-05-24  
   last obs. used      2021-06-11  
   planetary ephem.      DE441  
   SB-pert. ephem.      SB441-N16  
   condition code      0  
   norm. resid. RMS      .49251  
   source      ORB  
   producer      Otto Matic  
   solution date      2021-Jul-09 06:49:17  

Additional Information
 Earth MOID = 1.44548 au 
 Jupiter MOID = 2.3372 au 
 T_jup = 3.447 
[ show covariance matrix ]

Ephemeris | Orbit Diagram | Orbital Elements | Mission Design | Physical Parameters | Discovery Circumstances ]

Physical Parameter Table
Parameter Symbol Value Units Sigma Reference Notes
absolute magnitude H 16.90   n/a MPCxxxxx  

362188 (2009 FP72)          Discovered 2009-Mar-18 by Spacewatch at Kitt Peak
Reference: Last Updated: 2013-04-29
Ephemeris | Orbit Diagram | Orbital Elements | Mission Design | Physical Parameters | Discovery Circumstances ]
ABOUT SSD CREDITS/AWARDS PRIVACY/COPYRIGHT GLOSSARY LINKS
FirstGov 2021-Aug-05 05:55 UT
(server date/time)  
NASA Home Page
Site Manager:   Ryan S. Park
Webmaster  Alan B. Chamberlin